Location: Forest
(37.3641°N, 79.2902°W)
Time: 00:53:49
(UTC+00:00)

ACS3 Solar Sail - Pass Details

Date: 07 October 2024
Orbit: 961 x 1022 km, 97.5° (Epoch: 03 November)

Event Time Altitude Azimuth Distance (km) Brightness Sun altitude
Exits shadow 00:11:29 24° 85° (E) 1,979 2.8 -16.6°
Maximum altitude 00:12:47 26° 66° (ENE) 1,910 2.8 -16.9°
Drops below altitude 10° 00:17:52 10° 13° (NNE) 2,835 4.2 -17.9°
Sets 00:20:48 0° 2° (N) 3,794 5.0 -18.4°
